GEFSNGP_500_meanwind_066.txt.gz
Wind_Speed
17 15 14 14 13 13 15 17 18 16 15 15 16 17 15 14 14 14 13 12 11 11 12 12 13 14 15 16 17 19 20 21 22 23 24 25 25 26 27 27 29 30 31 32
16 15 16 16 15 15 16 18 19 18 16 15 16 17 15 15 15 16 15 14 13 14 14 15 16 17 17 18 19 21 22 24 25 26 27 27 28 29 29 30 31 32 33 35
17 16 17 15 14 16 18 18 18 18 17 17 18 16 15 15 16 16 16 15 14 14 15 16 18 20 21 21 22 23 25 26 28 29 29 30 30 31 32 33 34 35 36 37
19 18 18 16 15 17 18 18 20 20 20 20 19 17 16 16 17 18 17 16 16 17 19 20 21 22 23 24 25 26 28 29 30 31 31 32 32 33 34 35 36 37 38 39
21 20 20 19 18 18 19 20 20 19 20 20 21 20 19 17 17 18 19 19 20 22 23 23 24 24 25 27 28 29 31 32 32 33 33 34 35 35 36 37 39 39 40 41
23 23 22 20 19 20 21 21 21 21 21 21 22 22 22 21 19 20 22 24 25 25 26 26 27 27 28 29 31 32 33 34 34 35 36 37 37 38 39 40 41 42 42 43
24 24 22 20 19 19 21 22 22 22 21 22 22 22 23 24 24 24 26 27 27 28 29 30 31 31 32 32 33 34 35 35 36 38 38 39 40 42 43 43 44 44 44 45
25 23 22 21 21 20 22 21 22 21 21 20 21 23 24 24 25 26 28 29 30 31 32 33 34 35 35 36 36 37 37 38 39 40 41 42 43 44 45 46 47 47 47 47
25 24 22 22 23 23 24 24 23 21 19 19 21 22 23 25 27 29 30 31 32 33 34 35 36 37 37 38 38 39 40 41 42 43 44 45 46 47 48 49 49 50 50 50
28 27 26 25 25 27 27 25 23 22 22 22 23 23 24 26 28 30 31 33 34 35 36 37 37 38 39 40 41 42 43 44 46 47 48 49 50 50 51 51 52 52 52 52
29 28 27 27 26 26 26 25 24 24 25 26 27 27 27 28 30 31 32 34 35 36 37 38 39 40 41 43 44 45 46 47 48 50 51 52 52 53 53 54 54 54 54 53
30 30 29 28 28 28 28 27 27 27 28 29 29 30 31 31 32 33 34 35 36 38 39 40 41 42 43 44 46 47 48 50 51 52 53 54 55 55 55 56 56 56 56 56
29 29 30 29 30 30 30 30 30 30 30 31 31 32 33 34 35 36 36 37 39 40 41 42 43 44 45 46 47 48 50 51 53 54 55 56 57 58 58 58 58 59 59 59
28 29 30 30 31 31 31 31 31 32 32 32 33 34 35 36 37 38 39 40 41 42 43 44 45 46 47 48 49 51 52 54 55 56 58 59 60 61 62 62 62 62 62 61
27 28 29 30 30 31 32 32 33 33 34 35 36 37 37 38 39 40 41 43 43 44 45 46 47 49 50 51 52 54 55 57 58 59 61 62 63 64 65 65 66 65 64 63
25 27 29 29 29 30 31 32 33 35 36 37 38 39 40 41 42 43 44 45 46 47 48 49 50 52 53 54 56 57 59 60 61 63 64 65 66 66 67 67 66 66 64 61
25 26 26 26 28 29 31 32 33 35 37 39 40 41 42 43 45 45 47 48 49 50 51 52 53 55 56 58 59 60 61 63 64 65 65 66 66 65 65 64 63 61 58 55
27 27 27 28 29 30 32 33 35 37 39 41 42 44 45 46 47 48 49 50 51 52 54 55 56 58 59 60 61 62 62 62 63 63 62 62 61 60 59 57 54 51 48 45
26 26 28 29 31 33 35 37 39 40 42 43 44 46 47 48 49 50 51 53 54 55 55 56 57 58 59 59 59 59 59 59 58 57 56 55 53 52 50 47 45 42 39 36
29 31 32 34 35 37 38 40 42 43 44 45 46 47 49 50 51 52 53 54 55 55 56 56 57 57 57 56 56 55 55 54 52 51 50 49 47 44 41 39 37 33 30 27
33 34 35 37 39 40 42 43 44 45 46 47 49 50 51 52 52 53 53 54 54 54 54 54 53 53 52 52 51 50 49 48 48 47 46 43 40 37 33 30 28 25 21 20
36 38 40 42 43 44 45 46 47 48 49 50 51 51 51 52 52 52 52 52 51 51 50 49 49 48 47 46 46 45 45 44 43 42 38 35 31 28 25 22 19 17 15 15
41 43 45 46 47 47 48 49 49 50 50 50 50 50 50 50 49 49 48 47 46 46 45 44 43 42 42 42 42 41 39 38 36 34 30 27 23 20 17 16 13 11 10 10
45 46 48 48 49 49 50 50 50 50 49 49 48 48 47 46 45 44 43 42 42 41 41 39 39 39 39 38 37 35 34 32 29 26 23 20 17 15 14 12 8 7 7 7
47 48 49 49 49 49 49 48 48 48 47 46 45 44 43 41 40 40 39 38 37 37 36 36 36 36 35 34 33 31 29 26 23 21 18 16 14 12 11 8 5 5 4 4
47 47 47 47 47 47 47 46 45 44 43 41 40 39 37 36 36 36 35 34 33 33 33 33 34 33 32 31 29 27 25 22 20 18 15 13 12 10 8 5 4 3 2 2
45 45 45 45 45 44 43 42 41 40 38 37 35 34 34 33 32 31 30 30 31 31 31 31 31 30 29 27 26 23 20 18 17 15 12 11 10 8 6 4 4 3 2 1

GEFSNGP_500_meanwind_072.txt.gz
Wind_Speed
15 16 16 16 16 16 16 16 16 15 15 14 15 14 14 14 15 14 14 13 13 13 13 14 15 16 16 17 18 19 20 21 21 22 23 24 25 26 27 28 29 30 30 31
16 16 17 17 17 17 17 17 17 17 16 16 15 16 16 16 16 16 16 15 15 16 15 15 15 16 17 19 20 21 22 23 24 25 26 27 28 29 30 31 32 32 33 33
17 18 18 16 17 18 18 17 17 18 17 17 17 17 18 18 18 17 17 18 18 17 17 17 17 18 20 21 22 23 24 25 26 27 28 29 30 31 32 34 35 35 35 36
19 20 20 18 18 19 19 18 17 18 18 18 18 18 19 20 20 19 19 20 21 20 20 20 21 22 23 24 24 26 26 27 28 29 30 32 33 33 35 37 37 38 39 39
20 20 19 18 19 19 18 17 17 17 18 18 18 18 19 21 21 20 20 21 22 22 23 23 24 24 25 26 27 28 29 30 31 32 34 35 36 37 38 39 40 41 41 41
21 21 21 20 20 20 19 18 18 18 18 18 18 19 20 21 22 21 22 22 23 24 25 26 26 26 27 28 29 30 31 33 34 36 37 38 39 41 41 42 43 44 45 45
20 22 22 21 19 19 20 19 19 18 18 18 18 18 19 20 22 23 24 24 25 26 27 27 28 29 29 31 32 33 34 35 37 38 40 40 42 43 45 46 47 48 48 48
22 22 21 20 19 20 20 20 20 20 19 19 19 19 19 20 22 24 25 25 26 26 27 28 29 30 31 33 34 36 37 38 39 41 42 44 45 46 47 49 50 51 52 52
22 21 21 20 20 20 20 21 21 21 21 21 21 21 21 21 22 24 24 24 25 27 28 29 31 32 33 35 37 38 39 41 42 44 45 47 48 49 51 52 53 54 55 55
23 21 21 21 21 21 21 22 22 22 21 21 22 22 22 23 23 23 24 25 26 28 29 31 33 34 36 37 39 40 42 43 45 46 47 49 51 52 53 54 56 57 57 58
24 23 23 22 22 23 23 22 22 21 21 21 21 22 23 23 24 25 26 27 29 30 32 33 35 36 37 39 41 42 44 45 47 48 49 51 52 54 55 57 58 59 60 61
25 25 24 23 23 24 24 24 23 23 23 23 24 24 25 25 26 27 28 29 31 32 34 35 36 38 39 41 42 44 45 47 49 50 52 53 55 56 58 60 61 63 64 65
26 26 25 25 25 25 25 25 25 25 25 26 25 25 26 27 28 29 30 31 33 34 36 37 38 40 41 43 44 46 47 49 51 52 54 56 57 59 60 61 63 65 67 68
27 26 26 26 26 26 26 26 26 26 27 27 27 27 28 29 29 30 32 33 35 36 38 39 40 42 43 45 47 48 50 52 53 55 57 59 60 62 63 65 65 66 67 69
26 26 26 27 27 27 28 28 28 28 28 27 27 28 28 30 31 33 34 35 37 38 40 42 43 45 46 48 50 51 53 55 56 58 59 61 63 64 65 66 67 67 67 66
25 25 26 27 27 28 28 28 28 28 28 28 28 29 30 32 33 35 36 38 40 41 43 45 46 48 50 51 52 54 55 57 58 59 61 62 63 63 64 63 63 62 61 61
24 25 27 27 28 28 28 28 28 28 28 28 29 31 33 34 36 37 39 41 43 44 46 48 49 51 52 53 54 55 57 58 59 60 61 61 61 60 60 59 58 56 55 54
25 26 26 26 26 26 26 26 27 27 28 30 32 33 35 37 39 41 42 44 46 48 49 50 51 52 53 54 55 56 57 57 58 58 57 57 56 56 55 54 52 51 49 47
26 26 26 26 26 25 25 25 27 29 31 33 35 37 39 41 43 45 46 47 49 50 50 51 52 53 54 54 55 55 55 55 55 54 54 53 52 51 49 47 45 43 40 38
27 27 26 26 26 27 28 29 31 33 35 37 39 41 43 45 46 47 48 49 50 51 51 52 52 53 53 53 52 52 52 51 50 49 48 46 45 43 40 38 37 35 33 32
27 27 28 28 29 29 31 33 35 38 40 42 44 45 46 47 48 49 50 50 50 51 51 51 51 50 50 49 48 48 47 46 45 44 43 41 39 36 34 33 32 30 28 25
29 30 30 31 33 34 36 38 40 42 44 45 46 47 48 48 49 49 49 49 49 49 48 48 47 47 46 45 44 44 43 42 41 39 37 35 33 31 29 28 27 25 22 19
31 32 34 35 37 39 41 43 44 45 46 47 47 48 48 48 48 48 47 47 46 45 45 44 44 43 42 41 40 40 39 37 35 34 33 31 29 27 26 24 22 20 18 17
34 36 39 41 42 44 45 45 46 46 47 48 48 47 47 46 45 45 44 43 42 42 41 41 40 39 38 37 36 35 34 33 32 31 30 27 25 24 23 20 18 17 15 14
39 41 42 44 45 46 46 46 46 47 46 46 45 44 43 42 42 41 40 39 38 37 37 36 36 35 34 33 33 32 31 30 28 27 25 23 22 20 18 16 15 14 13 12
42 43 44 44 45 44 44 44 44 44 43 41 40 39 39 38 37 36 35 34 33 33 33 32 32 32 31 30 29 28 27 25 23 22 20 18 17 16 15 14 13 13 12 11
41 41 41 42 42 42 41 41 40 38 37 37 35 34 34 33 32 31 30 29 29 29 29 29 30 29 28 26 25 24 23 21 20 18 16 15 14 14 13 12 12 12 12 11

GEFSNGP_500_meanwind_078.txt.gz
Wind_Speed
17 18 17 15 14 13 12 11 11 11 13 13 14 14 14 14 15 15 15 14 14 14 15 16 16 17 17 18 18 20 21 22 24 25 25 26 27 28 28 29 30 31 31 31
18 18 17 16 14 13 13 13 13 13 14 14 14 15 15 16 17 17 17 16 16 17 18 19 19 20 20 21 21 22 23 24 25 26 27 28 29 29 30 31 32 33 32 32
17 18 18 17 15 15 15 15 14 15 16 15 15 15 17 17 18 19 20 20 20 20 21 22 22 23 24 24 24 24 25 26 27 28 29 30 31 31 32 33 34 34 34 34
19 19 19 19 17 17 17 17 17 17 17 17 16 17 18 19 20 21 23 24 24 25 25 25 25 26 27 28 28 28 28 29 30 31 32 33 33 34 35 36 36 37 37 37
21 20 20 21 19 18 18 18 18 18 18 17 18 19 19 20 21 23 24 26 27 28 28 28 28 29 30 31 32 32 33 33 33 34 35 36 36 37 38 39 39 40 40 41
22 21 20 21 20 19 19 19 19 19 19 19 19 20 19 20 21 23 24 26 28 29 29 30 30 31 33 34 34 34 35 36 36 36 37 38 39 40 41 42 42 43 43 44
22 21 21 22 20 19 20 20 20 20 20 20 21 21 21 21 22 24 25 26 28 29 30 31 32 32 33 34 35 35 35 36 37 37 39 40 41 42 43 44 44 45 47 48
23 22 23 22 21 21 21 21 20 20 21 21 22 22 23 23 24 24 25 26 27 29 31 33 33 32 33 34 35 36 36 37 39 39 40 42 43 44 44 45 47 48 49 51
23 23 24 23 23 22 22 21 21 21 22 22 23 24 24 24 25 25 26 27 28 29 31 32 32 32 33 33 34 36 38 39 40 40 42 43 44 45 46 47 49 50 52 53
22 23 24 24 24 23 22 22 22 23 23 24 24 25 25 25 26 26 27 28 29 29 30 31 31 31 33 34 35 36 37 38 39 41 42 44 45 47 48 50 51 52 54 56
23 24 23 22 22 22 23 23 23 24 24 25 25 26 26 26 27 27 28 28 29 29 30 31 32 33 34 35 36 38 39 40 41 42 44 45 47 48 50 52 54 56 58 59
22 22 23 22 22 23 23 24 24 25 25 26 27 27 27 27 28 28 29 30 30 31 32 32 33 35 36 37 38 39 41 42 43 44 46 48 49 51 53 56 58 60 62 63
22 23 23 23 24 24 24 25 26 26 27 27 27 28 30 30 30 31 31 32 33 33 34 35 36 37 38 39 40 41 43 44 45 47 49 51 53 55 57 59 61 62 64 65
22 23 23 24 24 25 25 26 27 27 28 28 29 31 32 33 33 33 34 34 35 35 36 36 37 39 40 42 43 44 46 47 49 51 53 54 56 58 59 61 62 63 64 65
21 22 23 23 24 24 25 26 27 27 28 29 31 32 34 35 35 35 36 36 37 37 37 38 39 40 42 44 45 47 48 50 51 53 55 56 58 59 61 61 62 62 62 62
21 21 22 23 23 24 25 26 27 28 29 31 33 34 35 35 36 36 37 38 39 39 39 40 41 43 44 46 48 50 51 53 54 56 57 58 59 60 60 60 60 59 58 57
21 21 22 23 24 25 26 27 27 29 31 33 34 35 36 37 38 39 39 40 41 41 41 42 44 45 47 49 51 52 54 55 56 57 58 58 58 57 56 55 53 51 50 48
22 23 24 25 25 26 26 28 29 30 32 33 34 36 37 38 39 40 41 41 42 43 44 45 46 48 50 52 53 54 55 56 56 56 56 55 53 52 51 49 47 45 44 43
23 24 24 25 26 27 28 29 31 32 33 34 35 38 39 39 39 40 41 42 43 45 46 47 49 50 52 53 54 54 54 54 53 52 51 50 48 47 45 43 42 40 38 37
25 25 26 27 28 29 30 31 32 32 33 35 36 38 38 39 39 40 42 44 46 47 49 50 50 51 51 52 52 51 50 49 48 48 47 45 43 41 40 38 37 37 35 33
26 27 28 28 29 31 31 32 32 33 35 37 38 39 40 41 42 43 45 47 47 48 49 49 49 49 49 48 48 47 46 45 44 43 41 39 37 36 35 35 34 33 31 29
28 29 29 30 31 33 33 34 35 36 38 39 40 41 41 42 44 44 45 46 47 47 47 47 46 46 45 44 44 43 42 41 39 37 35 33 32 32 31 30 29 28 26 25
30 31 31 32 33 34 35 37 38 39 41 41 41 42 43 43 44 44 44 45 44 44 43 43 42 40 40 40 39 38 36 34 33 31 30 29 28 27 26 25 24 22 21 20
30 31 32 33 35 36 38 39 40 41 41 41 42 42 42 42 42 42 42 42 41 40 39 38 37 36 35 35 33 32 31 29 28 27 26 25 24 23 22 20 20 18 17 17
32 33 34 35 37 38 39 39 39 40 40 40 40 40 40 40 40 39 38 37 36 36 35 33 32 32 31 30 29 28 27 27 25 24 23 22 21 19 18 17 16 16 16 16
34 34 36 37 37 38 38 39 39 40 39 38 38 38 37 37 36 35 33 32 32 31 30 29 29 28 27 26 26 25 25 23 22 20 19 18 17 16 15 14 14 14 15 15
34 35 36 37 37 37 37 37 37 36 35 35 34 33 33 32 31 30 29 28 27 27 26 26 26 25 24 24 23 22 21 20 17 16 15 14 13 13 12 12 13 13 13 13

GEFSNGP_500_meanwind_084.txt.gz
Wind_Speed
28 27 25 20 16 16 15 14 16 18 21 24 22 20 17 16 16 15 15 14 14 14 13 12 12 13 14 15 15 15 16 17 18 18 19 20 22 23 23 24 25 26 26 27
29 26 23 21 19 18 17 16 17 20 23 24 23 21 18 17 17 17 16 16 15 16 16 16 16 15 16 17 18 19 19 21 21 22 23 23 24 25 26 27 27 28 28 29
30 26 25 23 21 19 19 20 20 22 24 24 22 20 18 18 19 18 18 17 17 17 18 19 19 20 20 20 21 22 23 24 25 26 27 28 28 29 30 31 31 31 31 32
32 28 28 23 24 23 22 22 22 24 26 24 22 22 22 21 21 20 20 19 19 19 20 21 22 23 24 25 25 26 27 28 28 29 30 30 31 33 34 35 35 35 34 35
31 30 28 26 25 23 22 23 24 25 25 25 24 24 23 22 22 22 21 21 21 22 22 22 24 25 27 28 29 30 31 31 32 32 32 32 33 35 36 37 38 37 37 38
32 30 28 27 27 24 24 25 25 25 24 24 24 23 21 22 22 22 23 23 23 24 23 24 25 26 28 29 30 32 33 34 35 35 35 35 36 37 37 37 38 38 39 40
31 30 31 31 30 28 27 26 24 23 24 24 23 22 22 23 23 23 23 24 24 25 25 26 27 28 29 30 30 31 33 34 35 36 37 37 36 37 37 39 39 40 40 41
31 31 33 33 32 30 26 24 23 23 24 22 21 22 22 23 23 24 25 25 26 26 27 27 28 29 30 31 31 32 33 34 36 36 36 36 36 37 38 38 39 40 41 42
34 35 34 34 30 25 22 23 24 24 24 24 23 23 24 24 25 26 26 27 27 28 28 28 29 30 31 32 32 33 33 34 35 36 36 36 36 36 37 38 39 40 42 43
29 31 31 31 29 27 25 24 24 26 26 26 26 25 25 25 26 26 27 27 27 28 28 29 30 31 31 32 33 34 34 34 35 35 35 36 37 38 39 40 41 42 44 45
26 26 25 27 25 24 26 26 26 26 26 26 26 26 25 25 26 27 28 29 29 30 31 31 31 32 33 33 34 34 35 35 35 36 37 37 38 39 41 42 43 45 47 49
24 21 20 22 22 23 24 25 24 24 25 25 25 25 25 25 27 28 28 29 30 31 32 32 33 34 35 35 35 36 37 37 37 38 39 40 41 42 43 45 47 49 51 53
19 20 19 20 20 21 22 23 23 24 25 25 25 26 26 26 27 28 29 30 31 32 32 33 34 35 36 36 37 37 38 39 40 41 42 43 44 46 47 48 51 52 54 56
17 17 18 18 18 19 20 22 22 23 24 24 25 25 26 27 29 29 30 31 32 33 34 34 35 36 37 37 38 39 40 42 43 44 45 46 48 49 51 52 54 56 57 58
17 18 18 19 19 20 21 22 23 23 24 24 25 26 27 28 30 31 32 32 33 33 35 36 37 38 39 40 41 42 43 45 46 47 48 49 50 52 53 55 56 57 58 58
17 18 19 20 20 21 21 22 22 23 24 25 26 27 28 29 30 31 32 33 35 36 37 38 39 40 41 42 43 44 46 46 47 48 49 50 52 53 54 55 55 55 55 55
17 18 19 20 20 21 22 22 23 24 25 26 27 28 29 30 32 33 34 35 36 37 38 39 40 42 43 43 44 45 47 47 48 49 50 51 52 53 53 53 53 53 53 52
18 18 19 20 21 22 23 24 24 26 26 27 28 30 31 32 33 34 36 36 37 38 39 41 42 44 45 45 45 47 47 48 49 49 50 51 51 51 51 51 50 49 48 46
19 19 20 21 22 23 24 24 25 26 27 28 30 31 32 34 35 35 36 37 38 40 41 42 43 44 45 46 47 47 47 48 48 48 49 49 49 49 48 47 45 44 42 40
20 21 22 22 23 24 25 26 27 28 29 31 32 33 34 36 37 38 38 39 40 41 42 43 43 44 44 45 46 46 46 47 47 47 47 47 45 44 43 41 40 38 36 35
21 22 24 25 25 25 26 27 29 30 32 33 34 35 36 37 38 39 40 41 41 41 42 42 43 44 44 45 45 45 45 45 44 44 43 42 40 39 38 36 34 33 32 31
23 24 25 26 26 27 28 29 31 32 33 34 35 36 37 38 39 39 39 40 40 41 42 43 43 43 44 43 43 42 42 42 41 40 39 37 36 34 33 32 30 29 28 27
24 25 26 27 28 30 31 32 33 34 35 36 37 38 38 39 40 40 39 40 40 41 41 42 42 42 41 40 39 39 38 38 36 35 34 32 31 30 29 28 26 26 25 23
26 27 29 30 31 32 33 34 36 36 37 38 38 39 39 39 39 39 39 39 39 40 40 39 39 38 37 36 36 35 34 33 32 31 29 28 27 26 25 24 23 22 22 21
28 29 30 31 33 34 35 36 36 37 38 38 38 38 38 38 38 37 38 38 37 36 36 36 35 34 34 33 32 31 30 29 28 28 26 25 24 23 22 22 21 20 19 19
30 31 32 33 34 35 36 36 37 37 38 38 37 36 35 36 35 35 35 34 34 33 33 32 32 31 31 30 29 29 28 27 26 25 24 23 22 21 20 20 19 18 17 17
32 32 33 34 34 34 34 35 36 36 35 36 35 34 34 34 33 32 31 31 31 30 30 30 29 28 28 28 27 26 25 25 24 23 22 21 20 20 19 18 17 16 16 16

GEFSNGP_500_meanwind_090.txt.gz
Wind_Speed
34 31 30 30 28 27 25 24 23 22 20 18 16 15 14 12 9 9 8 8 6 6 6 6 7 7 8 9 10 11 12 13 14 15 16 18 19 20 22 23 24 26 26 26
38 35 33 32 30 28 26 25 25 23 20 18 16 15 15 14 12 11 10 9 8 8 7 8 9 10 10 11 12 13 14 14 16 17 18 20 21 22 24 26 27 28 28 29
41 38 36 35 32 30 28 27 27 25 22 20 18 17 16 14 13 13 11 10 10 10 10 10 11 11 12 13 15 15 16 17 18 20 21 22 24 25 26 27 29 31 32 32
46 43 43 37 33 32 31 30 29 27 25 23 21 19 17 16 14 12 11 11 11 12 12 13 13 14 15 16 17 18 19 20 22 22 24 26 26 27 29 30 30 31 32 34
48 46 44 40 36 34 33 33 31 28 27 25 24 20 18 17 15 15 14 13 13 13 14 14 15 16 18 19 20 21 21 23 24 25 26 27 28 29 29 31 31 33 34 34
47 47 46 41 38 35 35 35 32 31 29 27 24 21 18 18 17 17 16 15 15 15 16 17 17 18 19 21 22 23 23 24 26 27 27 28 29 30 31 32 33 34 34 33
45 47 46 42 41 38 37 35 31 30 29 26 23 20 18 17 17 17 17 18 18 18 18 19 19 20 21 22 24 25 26 26 27 27 28 30 30 30 31 32 32 34 35 35
44 46 47 43 39 39 38 35 32 32 30 27 24 21 18 17 17 18 18 19 19 19 20 20 21 22 23 24 25 26 28 28 29 30 30 31 33 34 33 34 35 36 37 38
39 41 40 39 39 37 36 34 31 30 28 26 24 21 18 17 18 19 19 19 20 21 21 22 23 24 25 26 27 28 29 30 31 32 33 34 35 36 36 36 36 37 38 39
30 31 32 34 35 34 33 33 30 28 27 23 21 21 19 18 18 19 20 21 22 22 23 23 24 26 27 28 29 30 31 32 33 34 35 35 36 37 37 37 38 39 40 41
23 24 25 27 28 29 29 27 25 23 23 22 20 19 19 19 19 19 20 21 21 22 23 24 25 26 28 29 30 31 32 33 34 35 35 36 37 38 39 39 40 41 42 44
18 18 19 21 23 23 24 22 21 21 19 19 18 17 17 18 19 19 20 21 22 23 24 25 26 27 29 30 31 32 33 34 35 36 37 38 39 39 40 41 43 44 45 46
11 14 15 16 17 17 18 17 17 17 16 15 16 16 17 18 19 19 21 22 23 24 25 26 27 29 30 31 32 33 35 36 36 37 38 39 40 41 42 44 45 46 47 48
7 8 9 9 10 11 12 13 13 13 12 12 13 14 16 17 19 20 22 23 24 25 26 27 29 30 31 33 34 35 36 37 38 39 40 41 42 43 45 46 47 48 49 50
4 5 6 7 7 8 9 10 11 11 11 12 13 15 16 18 20 21 22 23 25 26 27 29 30 32 34 35 36 37 38 39 40 41 43 44 45 45 46 47 48 49 50 51
4 5 6 8 8 9 9 10 10 11 12 13 15 17 18 20 21 23 24 25 26 28 29 31 32 34 35 36 37 38 39 41 42 43 44 45 46 47 48 49 49 50 50 50
6 5 5 6 7 8 9 10 11 12 14 15 17 18 20 21 22 24 25 27 29 30 31 33 34 35 36 37 39 40 41 42 43 44 45 45 46 46 47 47 47 47 47 47
6 6 6 7 8 9 11 12 13 15 16 17 19 20 21 23 24 26 27 28 30 31 33 34 36 38 39 40 41 41 42 43 44 44 45 45 45 46 46 46 46 45 45 45
9 9 9 10 11 12 13 14 15 16 17 18 20 21 23 24 26 27 29 30 32 33 34 36 38 39 40 41 41 41 42 43 43 44 44 44 45 44 44 43 43 42 41 40
10 10 11 12 12 13 14 15 16 18 19 20 22 23 24 25 27 29 30 31 33 35 36 38 39 39 40 40 41 41 42 42 42 42 42 42 42 41 41 40 39 38 36 35
12 12 13 14 15 15 16 17 19 20 21 22 23 24 26 28 29 31 32 33 35 36 38 38 39 39 39 40 40 40 40 40 40 39 39 39 39 38 37 35 34 33 32 30
14 15 15 16 17 18 19 20 21 23 24 25 26 27 29 30 32 33 34 35 36 37 38 38 38 37 38 38 38 37 37 37 37 36 36 35 34 33 32 31 30 29 28 26
16 17 18 19 20 21 22 23 24 25 26 27 29 30 32 33 34 35 35 36 36 36 36 36 35 35 36 36 35 35 35 34 34 34 33 32 31 30 29 28 27 25 24 23
18 19 20 21 22 23 24 25 26 27 28 30 31 33 33 34 34 34 35 35 35 35 34 34 33 33 34 34 34 33 33 32 32 31 30 29 28 28 27 26 24 22 22 21
19 20 22 23 24 25 26 28 29 30 31 32 32 33 33 33 33 33 33 33 33 32 32 32 32 32 32 31 31 30 30 30 29 28 27 27 26 25 24 22 21 20 20 20
22 23 24 25 26 27 28 29 30 31 31 32 32 32 32 31 31 31 30 30 30 30 30 30 30 29 28 28 28 28 27 27 26 25 25 24 24 23 21 21 20 19 19 18
25 26 26 27 27 28 28 28 29 30 30 31 31 30 29 29 28 28 27 27 27 27 27 27 27 27 26 26 26 25 25 24 23 23 23 23 22 21 20 20 19 19 18 18

GEFSNGP_500_meanwind_096.txt.gz
Wind_Speed
35 33 32 30 29 29 28 27 26 22 20 16 15 14 13 12 12 11 11 11 11 10 10 9 8 8 8 8 8 8 9 10 12 13 14 16 18 19 20 22 23 24 26 27
41 39 38 35 32 31 29 28 26 23 20 17 16 14 14 13 13 12 12 11 11 11 12 12 12 11 11 11 10 11 12 13 14 15 16 17 18 19 20 22 24 25 27 29
44 43 43 41 35 33 31 29 28 25 21 19 18 17 16 15 15 14 14 13 13 13 14 14 14 13 13 13 13 14 14 15 15 16 17 18 19 21 22 24 26 27 29 31
46 45 46 41 37 36 34 31 30 27 24 22 21 21 20 18 17 18 17 16 15 15 15 15 15 15 15 15 15 15 17 18 18 19 20 20 22 23 25 27 28 29 31 32
44 45 45 42 40 38 36 35 32 29 26 24 24 24 22 20 19 19 18 18 17 16 16 16 16 16 16 16 17 18 18 19 20 21 22 23 25 26 28 29 31 32 33 34
41 43 44 41 39 39 38 36 32 31 30 28 27 25 23 22 22 21 21 20 19 17 17 17 17 17 18 18 19 19 20 21 22 23 24 25 27 28 30 31 33 33 35 36
37 39 40 38 37 38 38 35 32 32 32 30 28 27 26 26 25 24 23 22 21 19 18 18 18 18 19 20 21 22 23 24 24 25 27 27 29 30 31 32 33 34 36 37
34 36 36 34 35 35 35 34 32 32 32 31 30 29 27 27 25 24 24 24 23 22 21 20 20 20 21 22 23 23 24 26 26 27 29 30 30 32 33 34 35 35 37 38
32 33 32 32 32 32 32 33 31 31 31 32 32 31 29 28 28 26 25 27 25 23 23 22 22 23 23 24 25 26 27 28 29 29 30 31 33 34 35 36 36 37 38 39
27 27 28 29 29 29 29 29 29 30 30 31 31 30 29 28 28 26 26 25 25 24 24 24 24 24 25 25 26 27 29 30 30 31 32 33 35 36 37 37 39 40 41 42
21 21 22 23 25 25 26 26 27 28 28 29 29 29 29 29 28 27 27 27 26 26 26 26 26 26 26 27 27 28 30 31 32 33 34 35 37 38 39 40 42 43 44 46
16 16 18 19 20 21 22 22 23 24 25 25 26 25 25 25 25 25 26 26 27 26 26 25 25 26 27 27 28 30 31 32 34 35 36 37 39 40 42 43 45 46 47 48
14 14 14 16 17 18 19 19 20 21 22 22 23 23 24 24 24 24 24 24 25 24 23 23 24 26 27 28 30 31 32 34 35 37 38 40 41 43 44 46 47 48 49 50
10 12 12 12 13 14 15 16 18 18 19 19 21 22 22 22 22 22 22 21 21 22 23 24 25 27 28 29 31 32 34 35 37 38 40 42 43 45 47 48 49 51 51 52
8 10 11 12 12 13 13 13 15 16 16 16 18 19 20 20 19 18 18 19 20 21 22 24 26 27 29 31 32 34 36 38 40 41 43 44 46 47 48 50 51 52 52 52
8 10 12 11 11 11 11 11 12 12 13 14 14 14 14 14 15 16 17 18 20 21 23 25 27 29 31 32 34 36 38 40 41 43 44 45 47 48 49 50 50 51 51 52
8 8 9 9 8 8 9 9 11 12 11 11 12 12 13 13 14 16 18 19 21 23 25 27 29 31 33 35 36 38 40 41 43 44 45 47 48 48 49 50 50 50 50 50
8 8 8 8 7 7 8 9 9 9 9 10 11 12 13 15 16 18 20 22 24 25 27 29 31 33 35 37 38 40 42 43 44 45 46 47 47 47 48 48 48 48 47 47
7 7 7 8 8 7 7 7 8 8 9 10 12 14 15 16 18 20 22 24 26 27 29 31 33 35 37 38 40 42 43 43 44 45 45 45 45 45 45 45 45 45 45 44
8 7 7 7 7 7 7 8 9 10 11 13 14 15 17 19 21 22 24 26 28 30 32 33 35 37 38 40 41 41 42 42 42 42 42 42 42 42 42 42 42 41 40 39
9 8 8 8 7 8 9 10 11 12 14 15 16 18 19 21 23 25 26 28 30 32 34 35 37 38 39 39 39 40 40 40 40 40 40 40 40 39 39 38 38 37 37 36
9 8 8 9 9 10 11 12 13 15 17 18 19 21 22 24 26 27 29 31 32 34 35 36 37 37 38 38 38 38 38 39 38 38 38 37 37 37 36 36 35 34 33 33
9 9 10 11 12 13 14 15 16 17 19 20 22 23 25 26 28 30 31 32 34 35 35 36 36 36 36 36 36 36 36 36 36 36 35 35 34 34 33 33 32 31 30 29
11 11 12 13 15 16 17 18 19 20 21 23 24 26 27 29 30 31 32 33 34 34 34 34 34 34 34 34 34 34 34 34 33 33 32 32 32 31 31 30 29 28 28 27
14 14 14 15 16 18 19 20 21 23 24 25 27 28 29 30 31 32 32 33 33 33 32 32 32 32 32 32 32 32 32 31 31 31 30 30 29 28 28 28 28 27 27 26
15 16 17 18 19 20 21 22 24 25 26 27 28 29 30 30 31 31 31 31 31 30 30 31 31 30 30 30 30 30 30 30 29 29 28 27 27 27 27 27 27 26 26 25
18 19 19 20 21 22 23 24 25 26 27 28 29 29 30 30 30 29 29 30 29 29 29 29 29 29 29 29 29 29 29 28 27 27 27 27 27 26 26 26 26 25 25 24

GEFSNGP_500_meanwind_102.txt.gz
Wind_Speed
30 29 28 26 26 26 25 24 22 20 18 16 15 14 14 13 13 12 12 11 10 9 8 8 7 7 6 6 6 6 6 8 10 12 13 14 15 16 17 18 19 20 20 21
32 31 31 30 29 28 28 27 26 24 21 18 17 16 15 15 14 14 13 12 11 11 10 10 10 9 9 9 9 9 9 9 10 11 13 14 15 17 18 19 20 20 21 22
33 33 35 33 29 29 29 28 28 26 23 22 21 19 18 17 16 16 15 14 12 12 12 12 12 12 12 12 12 12 12 12 12 13 14 15 16 17 18 19 20 21 23 24
34 35 37 31 31 30 29 28 28 28 27 25 24 22 21 20 19 17 16 15 14 14 13 13 13 14 14 15 15 15 15 15 16 16 17 17 18 19 20 21 22 23 25 26
35 35 35 32 32 29 29 29 29 29 29 28 26 25 25 24 21 19 18 17 17 16 15 16 16 16 17 17 18 18 18 18 18 19 19 19 20 21 22 23 24 26 27 29
34 34 34 31 31 30 30 30 30 30 30 29 29 29 27 26 24 23 21 21 20 20 18 18 18 19 19 19 19 20 20 20 20 21 20 21 22 23 24 25 26 28 30 31
31 33 33 31 29 29 30 30 29 30 31 31 31 31 30 29 28 26 25 24 23 23 22 21 21 21 21 22 21 21 21 22 23 23 23 23 24 25 26 28 30 31 32 34
29 30 29 29 28 30 30 29 29 30 31 31 31 31 31 31 30 29 28 27 26 25 25 24 24 25 24 24 24 24 24 24 24 24 25 25 27 28 29 30 31 33 34 36
28 29 28 27 27 28 29 28 29 29 30 31 31 32 31 31 31 31 30 30 29 28 28 28 27 27 27 26 27 26 26 26 26 26 27 27 28 30 31 32 33 35 37 39
27 26 26 27 27 28 28 28 28 29 29 30 31 31 31 32 32 32 32 31 31 30 29 28 28 28 29 28 28 28 28 28 28 29 29 30 32 33 33 34 36 38 39 41
25 24 25 25 25 26 27 27 28 29 30 31 31 31 31 31 32 32 32 32 32 31 30 29 28 27 27 28 29 30 30 30 30 30 31 33 34 35 36 37 38 40 42 43
22 21 22 22 23 23 25 26 27 27 29 30 31 31 32 32 32 32 32 32 32 32 30 29 29 28 28 29 30 30 30 31 32 32 33 34 35 37 38 39 40 42 44 45
20 20 20 19 20 22 23 24 25 25 26 28 29 30 30 30 31 30 30 31 31 31 30 29 29 28 29 29 29 29 30 31 32 33 34 35 36 37 39 41 42 44 45 47
17 17 17 18 18 19 20 20 22 23 24 25 27 27 27 27 28 28 28 28 28 28 27 28 27 27 27 27 27 28 29 30 31 32 34 36 37 39 41 43 44 46 47 48
15 14 14 15 15 16 17 17 18 19 20 21 22 22 23 24 24 23 24 25 24 24 24 24 25 25 25 26 26 28 29 30 31 33 35 37 39 41 42 44 46 47 48 49
13 12 12 13 13 14 15 16 16 16 17 18 19 19 20 21 20 20 20 20 21 21 21 21 21 21 22 24 26 27 29 31 33 35 37 39 40 42 44 45 47 48 49 49
11 11 11 11 12 13 13 14 15 15 16 17 17 17 17 17 17 17 18 18 19 19 19 18 19 20 23 25 27 29 31 33 35 37 38 40 42 44 45 47 47 48 47 47
10 10 10 10 11 12 12 13 14 15 15 15 14 13 13 14 15 16 16 16 16 17 17 19 21 23 25 27 29 31 33 35 36 38 40 42 44 45 46 46 46 46 46 45
10 10 10 10 10 10 10 11 11 11 11 10 10 11 12 13 14 14 15 15 15 17 19 21 23 25 27 29 31 33 35 37 39 40 41 43 43 44 44 44 44 43 43 42
10 10 9 9 8 8 7 7 7 8 9 10 11 11 12 13 13 13 14 16 18 20 22 24 26 28 30 32 34 36 38 39 40 40 41 42 42 42 42 41 41 40 40 39
9 9 8 8 7 7 7 8 8 9 10 10 10 11 12 13 14 15 17 19 21 23 25 27 29 31 33 35 37 38 39 39 40 40 40 40 40 40 39 39 38 38 37 37
10 9 8 8 8 9 9 9 9 10 10 11 12 13 14 15 17 18 20 22 24 26 28 30 32 34 35 37 38 38 38 38 39 38 38 38 38 38 37 37 36 35 35 35
10 10 9 9 9 8 8 9 10 11 12 13 14 16 17 19 20 22 24 25 27 29 31 32 34 35 36 37 37 37 37 37 37 36 36 36 35 35 35 35 34 34 33 33
12 12 11 10 10 10 10 11 12 13 14 15 17 18 20 21 23 25 26 28 29 30 32 33 34 35 36 36 36 35 34 34 34 34 34 34 33 33 33 32 32 31 31 30
12 11 10 10 11 11 12 13 14 16 17 18 19 21 22 24 25 27 28 29 31 32 33 34 34 34 34 33 33 32 31 31 31 32 32 32 32 31 31 30 30 29 29 29
11 11 11 11 12 14 15 16 17 18 19 21 22 24 25 26 27 29 30 30 31 32 32 32 32 31 31 30 30 29 29 29 30 30 30 30 30 30 29 28 28 28 28 28
12 12 13 14 15 16 17 19 20 21 22 23 24 25 26 27 28 29 30 30 30 30 30 30 29 29 28 28 27 27 27 27 28 28 29 29 29 28 27 26 26 26 26 26

GEFSNGP_500_meanwind_108.txt.gz
Wind_Speed
30 28 26 26 26 26 25 24 23 22 23 24 21 18 18 17 17 17 15 15 14 13 12 10 9 8 7 6 5 5 5 6 7 9 11 12 13 15 16 16 17 19 19 19
33 31 29 27 24 24 24 24 25 25 24 25 23 22 20 21 20 19 18 16 15 14 13 12 11 10 9 8 8 8 7 8 8 9 11 12 14 15 15 17 19 20 21 21
34 31 32 31 25 24 24 23 25 26 28 29 29 27 26 24 21 21 21 19 17 15 14 14 13 13 12 11 11 11 10 10 10 11 12 14 15 16 17 18 19 20 21 21
33 33 34 29 28 28 28 28 30 32 33 34 34 31 30 26 25 25 23 21 20 18 16 16 15 15 15 14 13 13 12 13 13 13 14 15 16 17 18 19 20 20 21 22
32 32 32 29 29 31 31 32 34 36 37 37 37 35 33 32 30 28 26 24 23 20 19 18 17 17 16 15 15 15 15 15 15 16 16 17 18 19 20 21 22 23 24 24
32 31 29 26 27 31 32 34 37 37 37 36 37 37 36 33 32 32 29 28 26 24 22 21 20 19 18 18 18 18 18 18 18 19 19 20 20 21 22 23 24 25 26 27
31 31 29 29 30 31 31 34 36 35 35 36 36 36 35 34 33 33 32 31 29 27 25 24 23 22 21 21 21 20 20 20 21 21 21 22 22 23 23 24 25 26 27 28
29 29 29 33 33 35 36 36 36 35 35 35 36 37 36 35 35 35 34 34 32 30 29 28 26 25 24 24 24 23 23 24 24 24 25 25 25 26 26 27 28 29 30 31
28 29 31 32 34 36 36 36 35 35 35 35 35 35 35 34 34 35 35 35 34 33 32 30 29 28 27 27 27 27 27 27 27 28 28 28 28 29 30 31 31 32 32 34
30 30 31 32 33 33 33 34 34 34 34 34 35 35 34 35 35 35 35 35 34 33 33 32 31 31 31 30 30 29 30 30 30 30 30 30 31 31 32 34 35 35 35 36
30 30 31 31 31 32 32 31 31 32 32 33 33 33 33 33 34 34 33 34 33 33 33 33 32 32 32 32 32 32 32 32 32 31 31 31 32 33 34 35 35 35 37 38
27 28 29 29 29 29 29 29 30 30 31 32 32 32 32 32 33 32 32 32 32 32 33 33 33 33 33 34 34 34 34 33 32 32 32 32 33 34 34 34 35 36 38 39
26 26 27 27 27 27 27 27 27 27 28 28 29 30 30 31 31 31 31 31 32 32 32 32 32 33 34 35 35 34 33 32 31 31 31 31 32 32 33 34 35 37 38 40
24 24 24 24 24 25 25 25 25 25 25 26 26 27 28 28 29 29 30 30 31 32 32 31 31 32 33 33 33 32 31 31 31 31 31 30 30 31 32 33 35 37 39 41
22 21 20 21 21 21 21 22 23 23 23 23 23 23 25 26 26 26 27 28 28 29 29 29 30 30 31 31 30 29 30 30 29 28 28 28 30 32 34 35 37 38 40 42
19 19 19 18 18 18 18 19 20 20 20 20 20 20 21 22 22 23 23 24 24 25 26 26 27 27 28 27 25 25 25 25 25 25 27 29 31 33 35 37 38 40 41 43
16 16 16 16 17 16 15 16 15 15 16 17 16 16 17 18 19 19 21 22 23 23 22 22 22 22 21 21 21 22 23 24 26 28 29 31 33 34 36 38 39 41 42 44
13 13 13 13 13 13 14 14 14 13 13 12 13 15 16 17 16 17 18 19 19 19 19 19 19 19 20 20 21 22 23 24 26 28 30 32 34 35 37 39 41 42 43 44
11 11 11 11 12 13 13 12 12 12 11 12 11 11 12 13 13 13 13 13 14 15 15 16 17 19 19 20 21 23 25 26 28 30 32 34 36 37 39 40 41 43 43 43
10 9 9 9 9 9 9 9 10 9 9 9 9 9 9 9 9 9 10 11 12 13 15 17 17 19 20 22 24 25 27 29 31 32 34 35 37 38 39 40 41 41 41 41
9 9 9 9 8 8 8 7 7 7 7 7 7 7 7 8 8 10 11 12 13 14 16 18 19 21 22 24 26 27 29 31 33 34 35 37 37 38 38 39 39 38 38 38
9 9 9 8 7 7 7 6 6 6 6 6 6 7 7 9 10 11 12 13 15 16 18 19 21 23 24 26 28 30 32 33 34 35 35 36 36 36 36 36 36 36 36 35
8 9 8 7 6 6 5 5 5 5 6 7 8 8 9 11 11 12 13 15 17 18 20 22 24 26 27 29 31 32 33 33 34 34 34 34 34 34 34 33 33 33 34 33
8 8 7 7 7 7 6 6 6 7 7 8 9 10 11 12 13 14 16 18 20 22 24 26 27 28 29 30 31 32 32 32 32 32 32 32 32 31 31 31 32 32 32 32
8 7 7 7 7 6 6 6 7 8 8 9 10 12 14 15 17 19 20 22 24 25 26 27 28 29 29 30 30 30 30 30 30 31 31 30 30 29 30 30 31 30 30 29
8 8 7 7 7 7 6 7 8 10 11 12 13 15 17 19 20 22 23 24 25 26 27 27 28 28 28 28 28 28 28 28 29 29 28 28 27 28 28 28 28 28 27 27
7 7 8 8 8 8 8 9 11 12 13 15 17 19 20 21 23 24 25 25 26 26 26 26 27 27 27 26 26 26 27 27 27 26 26 25 25 26 26 26 26 26 25 25

GEFSNGP_500_meanwind_114.txt.gz
Wind_Speed
30 30 32 31 31 31 29 28 28 26 25 23 21 18 16 14 13 11 11 11 10 10 8 7 6 5 4 4 4 5 5 5 7 9 10 12 14 15 16 18 19 19 20 20
33 33 34 34 32 32 32 31 31 30 29 27 25 22 20 18 16 15 15 14 12 12 12 9 7 7 7 6 6 6 6 6 6 7 8 10 12 13 14 16 17 18 18 19
36 35 35 36 34 34 34 34 33 33 31 30 27 26 24 22 20 20 19 18 17 15 14 12 10 9 9 8 8 8 8 8 8 9 9 9 11 13 14 15 16 17 18 19
38 36 38 36 36 37 38 37 35 34 34 32 29 27 26 25 23 24 24 22 21 18 16 15 12 11 10 10 10 10 9 9 9 10 11 11 12 13 15 16 17 17 18 20
38 36 36 35 36 38 39 38 36 36 35 33 31 30 28 28 27 26 26 25 24 22 20 17 15 14 13 12 12 12 12 12 12 13 14 14 14 15 16 17 18 18 19 21
39 37 35 33 35 37 38 38 36 35 34 34 33 32 31 30 30 29 29 26 24 23 21 19 18 17 16 15 14 14 14 14 14 15 15 15 16 17 17 18 18 19 21 22
37 36 34 32 33 35 37 37 35 34 33 33 33 32 32 32 31 30 29 28 26 23 22 21 19 20 19 18 17 17 16 16 17 17 17 17 17 17 18 19 20 21 22 24
35 35 34 31 31 33 34 34 34 33 33 33 33 33 32 32 31 31 30 27 26 25 23 22 21 22 21 20 20 20 19 19 19 19 19 19 19 19 20 21 22 23 24 26
35 34 32 30 30 32 33 34 34 34 33 33 33 32 32 31 30 30 30 29 28 26 25 24 23 23 23 23 22 22 21 21 20 20 20 21 21 21 23 24 26 28 28 28
34 34 33 30 30 30 31 31 31 31 31 31 32 31 31 31 30 29 28 27 26 26 26 26 26 25 24 24 23 23 23 23 23 23 23 23 24 24 25 26 28 28 29 30
32 30 30 29 30 30 29 29 30 31 31 31 32 31 31 30 29 29 27 25 26 26 26 26 26 25 25 25 24 24 24 25 25 25 24 24 25 26 27 28 29 29 30 32
32 30 31 30 29 29 28 28 27 28 28 28 28 28 28 29 28 26 26 25 25 25 25 25 25 24 24 24 25 25 25 26 26 25 25 26 27 28 29 30 30 32 34 35
30 30 29 27 27 28 28 28 27 26 26 25 25 25 25 25 24 24 23 23 23 24 24 24 24 24 24 24 25 25 25 26 25 25 26 27 28 29 31 32 33 34 35 34
27 27 27 27 26 27 27 26 25 25 24 24 23 23 22 22 22 22 22 22 22 22 22 23 24 24 24 24 24 25 25 25 26 25 27 28 28 29 30 31 32 32 32 32
26 26 25 25 25 24 24 24 23 22 22 21 21 20 20 20 20 20 21 21 20 20 21 21 22 23 23 23 23 23 24 25 25 26 26 26 26 27 28 28 29 30 32 34
23 23 23 23 21 20 20 20 20 20 19 19 18 18 17 17 18 17 17 18 20 20 20 20 21 21 21 21 21 21 22 23 23 23 23 23 24 25 26 27 30 32 34 37
20 19 18 18 18 18 18 18 18 18 17 17 16 15 15 16 15 15 14 15 16 16 16 17 18 19 19 19 20 20 21 21 21 22 22 23 24 26 28 31 33 35 37 38
17 17 16 16 15 16 16 16 15 15 15 14 14 14 13 13 13 12 13 13 13 14 15 15 16 17 17 17 17 18 19 20 20 22 23 25 27 29 31 33 35 36 37 39
15 14 14 15 14 13 13 12 12 12 13 12 11 11 11 11 12 13 13 13 12 13 13 13 14 14 14 14 15 17 18 20 21 23 25 27 29 30 32 33 35 36 38 39
13 12 12 12 13 12 12 12 11 11 10 10 10 10 10 9 10 10 10 11 10 11 11 12 12 13 14 15 16 18 19 21 22 24 26 28 30 31 33 34 35 37 37 38
11 11 11 12 12 12 11 10 10 9 9 10 10 9 9 8 8 7 7 8 8 9 10 11 12 13 15 16 18 20 21 23 25 27 28 30 31 32 33 34 35 36 37 37
12 12 12 11 11 11 11 11 10 10 9 9 8 7 7 7 7 7 7 8 9 10 11 12 13 15 16 18 20 22 23 25 27 28 30 31 32 33 34 34 34 35 35 34
11 12 12 11 11 11 11 11 10 10 9 8 7 6 6 6 7 8 9 10 10 11 13 14 16 18 19 21 23 24 26 27 28 29 30 31 31 32 32 32 32 32 31 30
11 11 11 11 11 11 10 10 9 8 7 7 6 6 6 7 8 9 10 11 12 14 16 17 19 20 22 23 24 25 26 27 28 28 29 29 29 29 29 28 28 28 28 28
10 10 10 9 9 8 8 8 8 7 7 7 7 8 9 9 10 11 12 14 15 17 18 19 21 22 23 23 24 25 25 26 26 26 26 26 26 26 26 25 25 25 26 26
8 8 8 7 7 7 7 7 7 7 8 8 9 9 10 11 12 13 15 16 17 18 19 20 21 22 22 23 23 24 24 24 24 25 25 24 24 23 23 23 23 23 23 23
7 6 6 6 6 6 7 7 7 7 7 8 9 10 12 13 14 15 16 17 18 19 19 20 20 21 21 21 22 22 22 22 23 23 22 22 21 21 21 21 21 22 21 21

GEFSNGP_500_meanwind_120.txt.gz
Wind_Speed
25 25 27 27 27 26 26 25 24 23 21 19 17 15 14 14 13 12 11 11 10 9 7 8 8 8 7 8 8 7 8 8 8 10 11 13 15 16 16 17 19 19 19 19
28 27 28 30 29 28 28 28 27 25 24 22 20 17 16 16 15 14 13 13 13 12 10 10 11 10 10 10 9 8 8 8 9 10 11 12 14 15 16 16 17 19 20 20
32 31 30 31 31 31 31 30 29 27 25 23 21 20 19 19 19 18 17 16 15 15 14 14 13 13 12 11 10 10 10 10 10 10 10 12 13 14 16 17 17 18 19 20
38 36 36 33 31 31 32 32 32 30 29 27 25 24 23 22 21 21 20 20 18 17 18 18 17 16 16 14 13 12 11 10 10 10 10 10 11 12 15 16 18 19 20 21
41 41 40 38 35 34 34 34 32 32 31 29 27 25 25 24 23 22 22 22 22 20 20 20 20 18 18 17 16 15 14 13 13 12 12 12 13 13 15 16 17 18 19 20
43 43 42 40 38 37 36 35 32 32 31 30 28 27 26 27 25 24 24 24 24 23 23 22 22 21 20 19 18 17 17 16 17 16 15 15 16 16 16 17 19 20 20 21
43 43 42 40 39 37 36 34 32 32 30 30 29 29 28 27 27 25 25 24 24 24 23 23 23 23 21 20 19 19 19 18 18 19 18 18 18 19 19 20 20 21 22 23
42 43 41 39 38 37 36 34 33 32 30 29 29 28 27 26 26 27 26 25 24 23 23 24 24 24 23 22 22 21 20 20 21 21 21 20 20 21 20 20 19 21 23 24
38 40 39 38 37 36 35 33 32 31 30 29 28 28 27 26 26 26 26 26 25 25 25 25 25 25 24 23 23 23 22 22 22 22 22 21 21 21 22 22 22 23 24 25
35 36 37 36 35 34 34 33 32 31 30 28 27 27 26 25 25 25 25 25 25 25 25 24 24 24 24 24 24 23 23 23 23 22 22 22 21 22 23 24 25 26 27 27
34 34 33 33 32 32 32 32 31 29 28 27 26 26 25 24 23 23 24 24 24 24 24 23 24 24 24 24 24 23 23 23 22 22 22 23 24 24 26 27 28 29 29 30
35 33 31 30 30 29 29 29 28 27 26 26 25 25 25 24 24 23 23 23 22 22 21 22 22 22 22 23 24 24 25 25 25 25 24 25 25 26 27 29 30 30 31 32
32 32 32 30 29 28 28 28 28 27 25 25 25 25 24 24 23 23 22 21 21 21 21 22 22 22 23 23 24 24 24 24 25 25 25 25 25 27 28 28 28 29 31 33
29 29 29 29 28 27 26 25 25 25 25 24 23 23 23 22 22 21 21 20 19 19 19 20 20 21 21 21 22 23 23 23 24 25 25 26 26 27 27 28 30 31 33 33
27 27 27 27 27 26 25 25 23 23 23 22 21 20 20 20 20 19 18 18 18 18 18 18 19 19 20 20 21 21 22 23 24 25 25 25 26 27 28 30 31 32 33 34
26 26 26 25 25 25 24 23 23 21 21 20 19 18 17 17 17 17 16 16 16 17 17 18 18 19 19 19 20 20 22 22 23 23 25 26 26 27 28 30 31 32 33 33
26 25 24 23 23 24 23 23 23 21 20 19 18 18 17 16 16 15 15 15 15 15 15 15 16 17 18 18 20 21 21 22 23 24 25 26 26 26 27 29 30 31 32 33
24 23 23 23 22 22 21 21 21 20 19 18 18 18 17 16 16 15 15 15 14 14 14 14 15 15 16 18 19 20 20 21 22 22 23 24 25 26 28 29 30 31 33 34
20 20 21 21 20 19 19 20 20 18 17 16 16 15 15 14 14 14 14 13 13 13 13 13 14 15 15 16 18 18 19 20 21 22 23 25 26 28 28 29 31 32 33 34
17 18 18 18 17 16 16 16 17 16 15 14 13 13 13 12 12 12 12 12 12 13 13 14 14 14 15 16 17 19 19 20 21 22 23 25 26 27 28 29 30 31 32 33
16 16 16 15 15 15 15 14 14 14 13 12 11 11 11 11 10 11 11 11 11 12 12 13 13 14 15 16 17 19 20 21 22 23 25 26 27 27 28 29 30 30 31 32
15 16 15 14 14 14 14 13 13 13 12 11 10 10 10 10 10 10 10 11 11 11 11 12 13 14 16 17 18 19 20 21 23 24 24 25 26 27 28 28 29 30 30 31
14 15 15 15 14 14 13 12 12 11 10 10 10 10 10 10 9 9 9 9 9 10 11 12 14 15 17 18 19 20 20 21 22 23 24 25 26 27 27 28 29 29 29 29
14 14 14 14 13 13 12 12 11 10 10 9 9 9 9 9 9 8 8 9 10 11 12 14 15 17 18 18 19 20 21 21 22 23 24 25 26 26 27 27 27 27 27 26
14 14 13 12 11 11 11 11 10 10 9 9 9 8 8 8 8 9 10 11 12 13 14 16 17 18 18 19 20 21 21 22 23 24 25 25 26 25 25 25 24 24 23 23
12 12 12 12 11 10 9 9 9 9 8 8 8 8 9 9 10 11 11 12 13 15 17 18 18 19 19 20 21 21 22 23 23 24 24 23 23 23 23 22 22 21 21 22
11 11 10 10 10 9 8 8 8 8 8 8 9 9 10 11 12 13 14 15 16 17 18 18 19 20 20 21 21 22 22 22 22 22 22 21 21 21 21 21 20 20 20 20

GEFSNGP_500_meanwind_126.txt.gz
Wind_Speed
25 25 23 22 22 22 21 19 17 16 16 16 15 14 13 12 12 12 11 11 10 10 9 8 9 8 8 8 8 8 8 9 10 10 11 12 13 15 15 16 17 19 20 21
27 27 26 25 25 24 23 22 20 19 20 19 18 16 15 14 14 13 13 12 12 12 11 11 11 11 11 10 10 10 10 11 12 12 12 13 14 15 15 16 17 18 19 20
28 28 28 28 26 26 25 24 21 21 21 21 20 18 18 17 16 16 15 15 14 14 14 14 14 14 13 13 13 12 12 12 12 13 13 13 14 15 16 17 18 19 19 20
30 30 29 28 29 27 26 25 24 24 23 22 21 21 20 19 19 18 18 18 17 17 17 17 17 17 17 17 16 15 15 14 14 14 15 15 15 16 18 20 21 21 21 22
32 30 30 32 29 27 27 27 26 25 25 24 23 23 23 22 22 21 21 20 20 21 20 20 20 19 19 19 19 18 17 16 16 17 17 17 17 18 19 20 21 22 22 23
35 32 30 32 31 28 28 29 27 27 26 25 24 25 25 23 23 23 23 23 23 23 22 22 22 21 21 21 20 19 19 18 18 18 19 20 20 19 20 21 22 23 24 24
36 35 33 35 32 29 30 30 28 27 27 26 26 26 26 25 25 24 25 24 24 24 24 24 23 23 23 23 22 21 21 21 20 20 20 21 21 21 21 22 23 23 23 23
37 36 36 37 33 32 32 30 29 28 28 29 28 28 28 27 27 27 27 27 27 26 26 26 26 25 25 24 24 24 23 23 22 22 23 23 23 23 23 24 25 24 24 24
39 39 38 36 35 34 33 33 32 31 30 30 30 29 28 28 27 27 27 28 28 28 28 28 27 27 26 25 25 25 24 23 23 24 24 25 25 26 27 26 26 26 26 26
37 38 37 36 35 34 33 33 33 32 31 30 29 29 29 28 28 27 27 27 28 29 28 28 28 27 27 27 26 26 25 25 25 26 26 26 25 26 26 27 27 28 28 27
35 36 35 35 34 33 32 32 32 31 30 30 30 29 28 28 27 27 27 26 27 27 27 27 27 27 26 26 26 27 26 26 26 27 27 27 27 27 26 27 27 27 28 29
35 34 34 32 32 31 31 30 30 30 30 30 29 29 28 28 27 26 25 24 24 25 25 26 26 26 26 26 27 27 27 27 27 27 27 27 27 27 28 28 28 28 29 30
33 32 32 32 30 30 30 29 29 29 29 29 28 28 27 27 26 26 25 24 24 25 25 25 25 25 25 25 25 25 26 26 27 27 26 27 27 26 26 26 27 28 29 30
30 31 31 31 31 29 29 29 29 28 28 28 28 28 27 27 27 26 25 25 24 24 24 24 24 23 24 24 24 24 25 25 25 26 26 26 27 27 28 28 28 29 29 29
29 29 29 29 30 30 30 29 28 28 28 28 28 28 28 27 26 25 25 25 24 23 23 23 23 23 23 23 23 23 24 24 24 25 25 25 26 26 26 27 28 28 28 29
27 27 27 28 28 28 28 28 27 27 27 26 26 26 26 25 25 24 24 24 23 23 22 21 21 21 21 22 22 22 22 22 22 22 22 23 24 25 25 26 28 28 28 29
25 25 25 26 26 26 27 27 27 26 26 26 26 25 24 23 24 23 22 22 21 20 19 19 19 19 19 19 19 20 20 20 20 21 21 21 22 24 25 26 27 27 27 28
24 24 23 23 23 24 25 25 25 25 26 26 25 24 23 22 21 20 20 19 19 19 19 18 18 18 17 17 16 17 17 18 19 19 20 21 22 23 24 25 25 26 27 27
22 22 23 22 23 24 24 24 24 24 24 23 23 22 21 20 19 19 19 19 19 18 18 17 17 16 16 16 16 16 16 17 18 19 20 21 21 22 23 24 25 25 26 27
22 22 22 22 22 22 23 23 23 23 23 22 21 20 19 19 19 18 18 18 17 17 16 15 15 15 15 15 15 16 17 17 18 19 20 21 22 22 23 24 24 25 26 26
20 21 21 20 20 21 22 21 21 21 21 21 19 19 18 17 16 15 15 15 14 14 14 14 14 14 14 14 15 15 16 18 18 19 20 21 22 22 23 23 23 24 24 25
17 18 19 19 19 20 20 20 18 18 18 17 17 16 15 15 14 13 12 13 13 13 13 13 13 14 14 14 15 16 17 18 18 19 19 19 20 20 21 21 22 23 24 24
15 15 16 18 19 19 19 18 17 17 15 15 14 14 14 14 13 12 12 12 12 13 13 13 13 13 14 14 15 15 16 17 17 17 18 18 19 20 20 21 22 22 23 23
14 15 15 16 17 17 17 17 16 15 14 13 13 13 13 13 13 13 13 12 12 12 12 12 12 12 12 13 14 15 16 16 17 17 18 18 19 20 20 21 21 21 22 22
14 14 14 15 15 15 16 15 15 13 12 12 12 12 12 12 12 12 11 11 12 12 12 12 12 13 13 14 15 16 16 16 17 18 19 19 19 20 20 20 20 20 20 20
14 14 15 14 14 14 13 13 13 12 11 11 11 10 10 10 10 10 10 10 11 11 11 12 13 13 14 15 16 17 17 17 18 18 18 19 19 19 19 19 20 20 19 19
13 13 13 13 12 12 11 10 10 10 11 11 10 10 10 10 10 10 10 11 11 12 13 13 14 15 16 16 17 17 17 18 18 18 18 19 19 19 19 19 19 19 19 19

GEFSNGP_500_meanwind_132.txt.gz
Wind_Speed
28 23 18 19 17 18 20 20 19 20 22 24 24 23 20 17 16 17 16 15 15 15 14 13 12 11 11 11 11 10 10 10 10 11 11 12 13 13 14 15 16 16 17 17
31 27 21 21 20 19 20 20 22 21 21 24 24 21 20 18 19 19 17 17 16 16 15 15 14 14 14 13 13 12 12 12 12 12 13 13 13 14 14 15 15 15 15 16
31 28 26 25 22 21 21 22 22 23 24 26 24 24 21 20 21 20 18 18 18 17 17 16 16 16 15 15 15 15 15 15 14 14 14 14 14 14 14 15 15 16 17 17
31 29 30 27 24 23 23 23 24 28 28 28 27 26 24 23 22 21 20 20 19 19 18 18 18 18 18 18 18 17 17 17 16 16 16 16 16 16 16 16 16 17 17 18
34 31 29 27 26 26 26 26 28 30 33 32 30 29 27 25 23 22 22 22 21 21 20 20 21 21 21 21 21 20 20 19 19 18 18 18 18 18 18 18 18 18 18 19
37 33 29 28 28 28 29 31 34 34 33 33 32 30 28 26 25 24 24 24 24 23 23 23 23 23 23 23 23 22 22 21 20 20 20 20 20 20 20 20 19 19 20 21
37 34 31 31 32 32 33 35 36 36 34 33 31 31 29 28 27 26 25 25 25 25 25 25 25 25 25 25 25 25 24 24 23 22 22 22 22 22 22 22 21 21 22 23
39 37 34 37 37 36 36 35 35 34 34 33 31 30 30 30 29 28 27 27 26 26 27 27 27 27 26 26 26 26 26 25 25 24 24 23 23 23 22 22 22 22 23 24
38 42 43 40 40 41 39 36 35 34 34 32 31 32 32 32 31 31 30 29 28 28 28 28 28 28 28 27 27 27 26 26 25 25 25 24 23 23 23 23 24 25 25 25
38 41 44 44 42 40 38 38 36 35 33 33 33 33 33 33 32 32 31 31 30 30 30 30 29 29 29 28 29 28 28 27 26 26 26 25 24 25 25 25 26 26 27 26
39 42 43 44 44 42 39 38 37 36 35 34 35 34 34 34 33 33 32 31 31 30 30 30 30 29 28 28 28 27 27 27 27 26 26 26 25 25 25 26 27 27 26 25
40 42 42 40 39 40 39 38 37 36 36 35 36 35 34 34 33 32 32 31 31 30 30 29 29 28 27 27 27 26 26 26 26 26 25 25 25 25 25 26 26 26 26 26
41 42 42 41 38 36 36 37 37 36 36 36 35 35 34 33 33 32 32 31 30 30 29 28 28 28 27 27 26 25 25 25 25 25 24 24 24 25 25 26 26 26 26 27
37 37 39 39 38 37 37 37 37 36 36 35 35 34 33 33 32 32 31 30 30 29 29 28 28 27 27 26 25 24 24 25 25 24 24 24 24 24 24 25 25 26 27 28
36 36 37 37 37 37 36 36 35 35 35 35 34 33 32 32 32 31 30 30 29 28 28 27 26 26 26 25 24 24 23 24 25 24 23 23 24 24 24 24 24 25 26 26
36 36 37 36 36 36 35 35 34 34 34 33 32 32 32 31 31 30 30 29 29 28 27 26 26 25 24 24 23 23 22 22 23 23 22 22 23 23 23 23 24 25 25 26
33 33 33 33 34 34 33 33 33 32 32 31 31 31 31 30 29 29 29 28 27 26 25 25 24 23 23 22 22 21 21 21 21 21 21 21 22 22 23 23 24 24 25 25
29 30 31 30 30 30 30 30 30 29 29 29 29 29 28 27 27 26 26 26 26 25 25 24 23 22 21 21 21 21 21 20 20 20 20 21 22 23 23 23 23 23 24 24
26 27 27 27 28 28 28 28 27 27 27 27 26 25 25 25 25 24 24 24 23 23 23 22 22 22 22 22 21 19 19 19 19 19 19 20 20 21 22 21 21 22 22 22
23 24 24 25 25 26 25 25 25 25 25 25 24 24 23 23 23 22 22 22 21 20 20 20 21 21 20 19 18 18 17 17 18 18 19 19 20 20 20 20 21 21 21 22
21 22 22 22 22 23 24 23 22 22 21 21 21 22 21 21 20 20 20 20 20 20 19 19 19 19 18 18 17 17 17 16 17 17 18 19 19 20 20 20 20 21 21 22
20 21 21 20 20 21 21 20 20 20 19 18 19 19 20 20 20 19 18 18 17 17 17 17 17 16 16 16 16 17 17 17 18 18 19 20 19 19 19 20 20 20 21 21
17 18 18 18 17 17 18 18 18 18 19 19 18 17 17 17 17 16 15 15 14 13 14 14 14 13 14 15 16 17 17 18 18 19 19 18 18 18 19 19 19 19 20 20
14 13 14 15 15 15 15 16 16 15 16 16 15 14 14 13 13 12 12 12 12 13 13 13 13 14 15 15 16 16 17 17 18 18 17 18 18 18 19 19 19 19 20 21
13 13 13 13 13 13 13 13 13 13 13 14 13 13 12 12 12 12 12 12 13 13 13 13 14 14 14 15 15 16 16 16 17 17 18 18 19 20 20 20 20 21 22 22
11 11 11 11 12 12 12 11 11 12 12 11 12 11 11 11 11 11 12 12 13 13 14 14 14 14 15 15 16 17 17 17 18 19 20 20 20 21 21 21 21 22 22 23
9 9 10 10 11 11 11 11 11 10 10 10 10 10 10 10 11 11 12 12 12 13 13 13 14 14 15 16 17 18 18 19 19 20 20 21 21 21 21 22 22 22 23 23

GEFSNGP_500_meanwind_138.txt.gz
Wind_Speed
29 29 30 27 24 21 21 21 21 21 23 22 21 20 19 17 16 15 14 13 13 12 11 9 9 9 9 8 8 8 8 8 9 9 9 9 10 10 11 11 12 13 14 15
31 31 33 31 27 25 23 22 21 21 22 22 22 21 20 19 17 15 15 14 14 13 11 11 11 10 10 10 10 10 10 10 10 10 10 10 10 10 11 12 12 13 14 15
34 33 35 35 30 28 26 25 24 24 23 22 23 23 22 20 19 18 17 16 15 14 13 13 13 13 12 11 12 12 12 12 12 12 12 12 12 12 12 13 13 14 14 15
37 36 38 35 32 31 29 28 27 26 25 25 25 24 24 23 21 18 18 17 16 16 15 14 14 15 14 14 14 14 14 14 14 15 15 14 14 14 14 14 15 14 15 16
40 39 39 36 34 34 33 31 29 28 27 27 27 26 25 24 22 21 20 19 19 18 17 16 17 17 16 16 16 17 17 17 17 17 16 16 16 16 16 16 16 16 16 17
43 41 39 36 34 35 35 35 32 31 30 29 29 28 27 26 25 24 24 22 21 20 19 19 19 19 19 19 19 19 19 19 19 18 18 17 17 17 17 17 17 18 18 19
45 43 40 37 36 37 38 36 34 33 32 31 31 30 29 28 27 27 26 24 23 22 22 21 21 21 21 21 21 21 21 21 20 20 19 19 19 19 19 19 19 20 20 20
45 44 42 37 37 39 39 37 36 34 34 34 32 31 30 28 28 27 26 26 25 24 24 23 23 23 23 23 23 23 23 23 22 22 21 21 21 21 21 21 21 21 21 22
46 44 40 39 39 40 40 38 37 36 36 36 35 33 32 30 28 29 29 29 28 27 26 25 25 25 24 24 25 24 24 24 24 23 23 23 23 22 22 22 22 22 22 22
47 45 42 39 39 40 40 40 38 37 38 37 36 34 34 33 31 30 31 30 30 29 28 27 27 26 26 26 26 26 25 25 25 24 24 23 23 23 23 23 23 23 23 23
47 45 43 41 40 39 39 40 40 39 38 38 38 36 35 34 33 32 31 31 31 30 29 28 28 28 27 27 27 26 25 25 24 24 24 23 23 23 23 23 23 23 23 23
45 44 42 41 40 40 40 40 40 40 39 38 37 37 36 36 34 32 32 31 31 30 30 29 29 28 28 28 28 27 26 25 24 24 24 24 23 23 23 23 23 24 24 25
41 41 41 40 39 39 40 41 42 42 41 39 38 37 35 35 34 33 32 32 31 31 30 30 29 29 29 29 28 27 26 26 25 24 24 24 23 23 23 23 23 23 24 25
38 38 39 39 39 38 37 38 37 36 36 36 36 35 34 34 34 33 33 32 31 31 31 30 30 30 30 29 28 27 26 25 25 24 24 24 23 22 22 22 23 24 24 24
36 36 35 36 36 35 34 34 33 32 32 33 34 34 34 33 33 32 33 32 31 31 31 31 31 30 30 29 28 27 26 25 24 24 23 23 22 22 22 22 23 24 23 23
35 35 34 31 31 31 30 30 30 30 31 31 32 33 33 33 33 32 32 31 30 30 30 30 30 29 28 28 27 26 26 25 24 23 22 21 21 22 22 23 23 23 23 23
34 35 35 33 31 30 29 29 29 29 29 30 31 31 31 31 31 31 31 31 30 29 28 28 29 28 28 28 27 26 25 24 23 22 21 21 21 21 22 22 22 22 23 23
29 29 30 30 30 30 29 27 27 27 28 29 30 30 31 31 31 30 30 29 28 27 27 27 27 27 26 26 25 24 23 22 22 21 21 20 20 21 21 21 21 22 22 22
25 25 26 26 27 28 28 27 27 28 29 29 29 30 30 30 30 30 29 28 27 27 27 26 25 24 23 23 22 22 22 22 22 21 20 20 20 20 21 20 20 21 21 22
24 24 24 25 26 26 27 27 27 27 27 28 27 27 27 27 27 27 26 25 25 25 25 24 24 23 22 21 21 20 21 21 20 20 20 20 20 20 20 20 21 21 22 21
23 23 23 23 24 24 25 25 25 25 25 26 25 25 24 24 24 23 23 23 23 22 22 21 21 20 20 20 20 20 20 19 19 19 19 19 19 19 19 20 20 20 20 20
20 21 22 22 22 22 22 22 22 22 22 22 22 22 21 21 20 20 20 20 19 19 18 18 19 18 18 18 18 18 18 19 19 19 19 19 19 19 19 20 20 20 20 21
17 18 19 19 19 19 19 19 19 19 19 19 19 19 19 18 18 17 17 16 16 16 16 17 17 17 17 17 17 17 18 18 18 18 18 19 19 19 19 20 20 21 21 21
14 15 15 15 16 16 16 16 16 16 16 16 16 16 16 16 16 15 15 14 14 14 15 15 16 16 16 17 16 16 17 17 17 17 17 18 19 19 20 21 21 22 22 22
12 12 13 13 13 13 13 13 13 13 13 13 13 14 13 13 13 12 12 12 12 12 13 13 13 14 14 14 15 15 16 16 17 18 18 19 19 20 21 21 21 22 22 22
11 11 11 11 11 11 11 12 11 11 11 12 11 11 11 12 12 12 12 12 12 13 13 13 13 14 14 14 14 16 17 17 18 19 19 20 20 21 21 21 22 23 23 23
9 10 10 10 11 10 10 10 10 9 9 9 9 9 9 10 11 10 10 11 11 12 13 14 14 15 15 16 16 17 18 18 19 20 20 21 21 22 22 23 23 23 24 24